Tillbaka till svenska Fidonet
English   Information   Debug  
FILM   0/18
FNEWS_PUBLISH   5034
FN_SYSOP   42247
FN_SYSOP_OLD1   71952
FTP_FIDO   0/2
FTSC_PUBLIC   0/13979
FUNNY   0/4886
GENEALOGY.EUR   0/71
GET_INFO   105
GOLDED   0/408
HAM   108/16786
HOLYSMOKE   0/6791
HOT_SITES   0/1
HTMLEDIT   0/71
HUB203   466
HUB_100   264
HUB_400   39
HUMOR   0/29
IC   1876/2851
INTERNET   0/424
INTERUSER   0/3
IP_CONNECT   719
JAMNNTPD   0/233
JAMTLAND   0/47
KATTY_KORNER   0/41
LAN   0/16
LINUX-USER   0/19
LINUXHELP   0/1155
LINUX   0/22427
LINUX_BBS   0/957
mail   18.68
mail_fore_ok   249
MENSA   275/341
MODERATOR   0/102
MONTE   0/992
MOSCOW_OKLAHOMA   0/1245
MUFFIN   0/783
MUSIC   0/321
N203_STAT   938
N203_SYSCHAT   313
NET203   321
NET204   69
NET_DEV   0/10
NORD.ADMIN   0/101
NORD.CHAT   0/2572
NORD.FIDONET   189
NORD.HARDWARE   0/28
NORD.KULTUR   0/114
NORD.PROG   0/32
NORD.SOFTWARE   0/88
NORD.TEKNIK   0/58
NORD   0/453
OCCULT_CHAT   0/93
OS2BBS   0/787
OS2DOSBBS   0/580
OS2HW   0/42
OS2INET   0/37
OS2LAN   0/134
OS2PROG   0/36
OS2REXX   0/113
OS2USER-L   207
OS2   0/4835
OSDEBATE   0/18996
PASCAL   0/490
PERL   0/457
PHP   0/45
POINTS   0/405
POLITICS   26785/29554
POL_INC   0/14731
PSION   103
R20_ADMIN   1133
R20_AMATORRADIO   0/2
R20_BEST_OF_FIDONET   16
R20_CHAT   0/897
R20_DEPP   0/3
R20_DEV   400
R20_ECHO2   1934
R20_ECHOPRES   0/35
R20_ESTAT   0/719
R20_FIDONETPROG...
...RAM.MYPOINT
  0/2
R20_FIDONETPROGRAM   0/22
R20_FIDONET   0/248
R20_FILEFIND   0/24
R20_FILEFOUND   0/22
R20_HIFI   0/3
R20_INFO2   3827
R20_INTERNET   0/12940
R20_INTRESSE   0/60
R20_INTR_KOM   0/99
R20_KANDIDAT.CHAT   42
R20_KANDIDAT   28
R20_KOM_DEV   112
R20_KONTROLL   0/13360
R20_KORSET   0/18
R20_LOKALTRAFIK   0/24
R20_MODERATOR   0/1852
R20_NC   76
R20_NET200   245
R20_NETWORK.OTH...
...ERNETS
  0/13
R20_OPERATIVSYS...
...TEM.LINUX
  0/44
R20_PROGRAMVAROR   0/1
R20_REC2NEC   534
R20_SFOSM   0/341
R20_SF   0/108
R20_SPRAK.ENGLISH   0/1
R20_SQUISH   107
R20_TEST   2
R20_WORST_OF_FIDONET   20
RAR   0/9
RA_MULTI   106
RA_UTIL   0/162
REGCON.EUR   0/2072
REGCON   0/13
SCIENCE   0/1206
SF   0/239
SHAREWARE_SUPPORT   0/5146
SHAREWRE   0/14
SIMPSONS   0/169
STATS_OLD1   1555/2539.065
STATS_OLD2   0/2530
STATS_OLD3   0/2395.095
STATS_OLD4   0/1692.25
SURVIVOR   0/495
SYSOPS_CORNER   0/3
SYSOP   0/84
TAGLINES   0/112
TEAMOS2   0/4530
TECH   0/2617
TEST.444   0/105
TRAPDOOR   0/19
TREK   0/755
TUB   0/290
UFO   0/40
UNIX   0/1316
USA_EURLINK   0/102
USR_MODEMS   0/1
VATICAN   0/2740
VIETNAM_VETS   0/14
VIRUS   0/378
VIRUS_INFO   0/201
VISUAL_BASIC   0/473
WHITEHOUSE   0/5187
WIN2000   0/101
WIN32   0/30
WIN95   30/4291
WIN95_OLD1   0/70272
WINDOWS   0/1517
WWB_SYSOP   0/419
WWB_TECH   0/810
ZCC-PUBLIC   0/1
ZEC   4

 
4DOS   0/134
ABORTION   0/7
ALASKA_CHAT   0/506
ALLFIX_FILE   0/1313
ALLFIX_FILE_OLD1   0/7997
ALT_DOS   0/152
AMATEUR_RADIO   0/1039
AMIGASALE   0/14
AMIGA   0/331
AMIGA_INT   0/1
AMIGA_PROG   0/20
AMIGA_SYSOP   0/26
ANIME   0/15
ARGUS   0/924
ASCII_ART   0/340
ASIAN_LINK   0/651
ASTRONOMY   0/417
AUDIO   0/92
AUTOMOBILE_RACING   0/105
BABYLON5   0/17862
BAG   135
BATPOWER   306/361
BBBS.ENGLISH   0/382
BBSLAW   0/109
BBS_ADS   0/5290
BBS_INTERNET   0/507
BIBLE   0/3563
BINKD   0/1119
BINKLEY   0/215
BLUEWAVE   0/2173
CABLE_MODEMS   0/25
CBM   0/46
CDRECORD   0/66
CDROM   0/20
CLASSIC_COMPUTER   0/378
COMICS   0/15
CONSPRCY   0/899
COOKING   42383
COOKING_OLD1   0/24719
COOKING_OLD2   20999/40862
COOKING_OLD3   0/37489
COOKING_OLD4   15452/35496
COOKING_OLD5   9370
C_ECHO   0/189
C_PLUSPLUS   0/31
DIRTY_DOZEN   0/201
DOORGAMES   0/2388
DOS_INTERNET   0/196
duplikat   6102
ECHOLIST   13811/18295
EC_SUPPORT   0/318
ELECTRONICS   0/359
ELEKTRONIK.GER   1534
ENET.LINGUISTIC   0/13
ENET.POLITICS   0/4
ENET.SOFT   0/11701
ENET.SYSOP   34411
ENET.TALKS   0/32
ENGLISH_TUTOR   0/2000
EVOLUTION   0/1335
FDECHO   0/217
FDN_ANNOUNCE   0/7068
FIDONEWS   25226
FIDONEWS_OLD1   0/49742
FIDONEWS_OLD2   0/35949
FIDONEWS_OLD3   0/30874
FIDONEWS_OLD4   0/37224
FIDO_SYSOP   12977
FIDO_UTIL   0/180
FILEFIND   0/209
FILEGATE   0/212
Möte HAM, 16786 texter
 lista första sista föregående nästa
Text 2948, 718 rader
Skriven 2009-05-07 23:30:21 av Amsat List (1:323/120.0)
Ärende: [keps]  orb09127.amsa
=============================
[keps]  orb09127.amsa

Return-Path: <keps-bounces@amsat.org>
X-Rcpt: craig.healy@chowda.com
X-UIDL: 1241751687.27008

SB KEPS @ AMSAT  $ORB09127.O
Orbital Elements  09127.OSCAR

HR AMSAT ORBITAL ELEMENTS FOR OSCAR SATELLITES
FROM WA5QGD FORT WORTH,TX May 7, 2009
Send Subscribe/unsubscribe to KEPS at 
http://www.amsat.org/mailman/listinfo/keps
BID: ORB09127.O
TO ALL RADIO AMATEURS BT

Satellite: AO-07
Catalog number: 07530
Epoch time:      09127.38749830
Element set:     471
Inclination:      101.4300 deg
RA of node:       153.5596 deg
Eccentricity:    0.0011780
Arg of perigee:   350.5700 deg
Mean anomaly:     009.5150 deg
Mean motion:   12.53575649 rev/day
Decay rate:       -2.7e-07 rev/day^2
Epoch rev:           57760
Checksum:              288

Satellite: FO-29
Catalog number: 24278
Epoch time:      09126.81230492
Element set:    0041
Inclination:      098.5601 deg
RA of node:       006.4009 deg
Eccentricity:    0.0351408
Arg of perigee:   097.5823 deg
Mean anomaly:     266.5363 deg
Mean motion:   13.52942732 rev/day
Decay rate:       -8.9e-07 rev/day^2
Epoch rev:           62815
Checksum:              309

Satellite: SO-33
Catalog number: 25509
Epoch time:      09127.79496219
Element set:     448
Inclination:      031.4346 deg
RA of node:       280.8900 deg
Eccentricity:    0.0354681
Arg of perigee:   345.2337 deg
Mean anomaly:     013.8120 deg
Mean motion:   14.28249954 rev/day
Decay rate:        2.2e-07 rev/day^2
Epoch rev:           55005
Checksum:              304

Satellite: RS-22
Catalog number: 27939
Epoch time:      09126.82935337
Element set:     783
Inclination:      097.9511 deg
RA of node:       003.1921 deg
Eccentricity:    0.0012434
Arg of perigee:   263.2923 deg
Mean anomaly:     096.6894 deg
Mean motion:   14.63312512 rev/day
Decay rate:       -1.0e-07 rev/day^2
Epoch rev:           29952
Checksum:              309

Satellite: VO-52
Catalog number: 28650
Epoch time:      09126.71708446
Element set:    0220
Inclination:      097.7456 deg
RA of node:       189.6637 deg
Eccentricity:    0.0027582
Arg of perigee:   162.5612 deg
Mean anomaly:     197.6558 deg
Mean motion:   14.81577692 rev/day
Decay rate:      -2.50e-06 rev/day^2
Epoch rev:           21650
Checksum:              335

/EX
SB KEPS @ AMSAT  $ORB09127.D
Orbital Elements  09127.MICROS

HR AMSAT ORBITAL ELEMENTS FOR THE MICROSATS
FROM WA5QGD FORT WORTH,TX May 7, 2009
Send Subscribe/unsubscribe to KEPS at 
http://www.amsat.org/mailman/listinfo/keps
BID: ORB09127.D
TO ALL RADIO AMATEURS BT

Satellite: AO-16
Catalog number: 20439
Epoch time:      09126.83430782
Element set:     598
Inclination:      098.2758 deg
RA of node:       097.1255 deg
Eccentricity:    0.0010127
Arg of perigee:   297.5630 deg
Mean anomaly:     062.4538 deg
Mean motion:   14.31822964 rev/day
Decay rate:        6.0e-08 rev/day^2
Epoch rev:             723
Checksum:              309

Satellite: LO-19
Catalog number: 20442
Epoch time:      09126.47884002
Element set:    0518
Inclination:      098.2375 deg
RA of node:       104.2101 deg
Eccentricity:    0.0010860
Arg of perigee:   293.1419 deg
Mean anomaly:     066.8626 deg
Mean motion:   14.32058542 rev/day
Decay rate:       -5.4e-07 rev/day^2
Epoch rev:           00734
Checksum:              277

Satellite: AO-27
Catalog number: 22825
Epoch time:      09127.61211878
Element set:     238
Inclination:      098.4328 deg
RA of node:       082.3196 deg
Eccentricity:    0.0008791
Arg of perigee:   030.9293 deg
Mean anomaly:     329.2418 deg
Mean motion:   14.29264958 rev/day
Decay rate:        5.6e-07 rev/day^2
Epoch rev:           81411
Checksum:              324

Satellite: IO-26
Catalog number: 22826
Epoch time:      09126.62954793
Element set:     962
Inclination:      098.4264 deg
RA of node:       082.1346 deg
Eccentricity:    0.0009409
Arg of perigee:   028.5576 deg
Mean anomaly:     331.6114 deg
Mean motion:   14.29516219 rev/day
Decay rate:        7.0e-08 rev/day^2
Epoch rev:           81407
Checksum:              318

Satellite: GO-32
Catalog number: 25397
Epoch time:      09126.59184599
Element set:    0888
Inclination:      098.3289 deg
RA of node:       151.1561 deg
Eccentricity:    0.0001677
Arg of perigee:   053.4029 deg
Mean anomaly:     306.7309 deg
Mean motion:   14.23158420 rev/day
Decay rate:        5.8e-07 rev/day^2
Epoch rev:           56221
Checksum:              324

Satellite: NO-44
Catalog number: 26931
Epoch time:      09127.56618435
Element set:     162
Inclination:      067.0514 deg
RA of node:       168.9946 deg
Eccentricity:    0.0005362
Arg of perigee:   268.7775 deg
Mean anomaly:     091.2713 deg
Mean motion:   14.29554385 rev/day
Decay rate:      -1.02e-06 rev/day^2
Epoch rev:           39677
Checksum:              334

Satellite: SO-50
Catalog number: 27607
Epoch time:      09127.61323234
Element set:     879
Inclination:      064.5570 deg
RA of node:       148.3185 deg
Eccentricity:    0.0072105
Arg of perigee:   214.4916 deg
Mean anomaly:     145.1506 deg
Mean motion:   14.71433169 rev/day
Decay rate:       -2.0e-08 rev/day^2
Epoch rev:           34270
Checksum:              285

Satellite: CO-55
Catalog number: 27844
Epoch time:      09127.49457375
Element set:     573
Inclination:      098.7146 deg
RA of node:       137.2367 deg
Eccentricity:    0.0008791
Arg of perigee:   260.4428 deg
Mean anomaly:     099.5773 deg
Mean motion:   14.20635285 rev/day
Decay rate:        3.6e-07 rev/day^2
Epoch rev:           30348
Checksum:              342

